Regional Weather Roundup
Issued by NWS

Home | Current Version | Previous Version | Text Only | Print | Product List | Glossary Off
Versions: 1 2 3 4 5 6 7 8 9 10 11 12 13 14 15 16 17 18 19 20 21 22 23 24 25 26 27 28 29 30 31 32 33 34 35 36 37 38 39 40 41 42 43 44 45 46 47 48 49 50

083
ASUS43 KDTX 061401
RWRMI
MICHIGAN HOURLY REGIONAL WEATHER ROUNDUP
NATIONAL WEATHER SERVICE DETROIT/PONTIAC MI
900 AM EST SAT FEB 06 2016

NOTE: "FAIR" INDICATES FEW OR NO CLOUDS BELOW 12,000 FEET WITH NO
SIGNIFICANT WEATHER AND/OR OBSTRUCTION TO VISIBILITY.

MIZ047>049-052>055-059>063-066>070-074>076-081>083-061500-
SOUTHEAST LOWER MICHIGAN

CITY           SKY/WX    TMP DP  RH WIND       PRES   REMARKS
ADRIAN         CLOUDY    32  22  66 W5        30.30R HAZE    WCI  27
ALMA           CLOUDY    27  25  90 S7        30.22F FOG     WCI  20
ANN ARBOR      MOSUNNY   25  22  88 SW7       30.28R WCI  17
BAD AXE        CLOUDY    26  21  79 SW10      30.20F WCI  16
CARO           CLOUDY    27  22  82 SW7       30.22S WCI  19
DETROIT CITY   PTSUNNY   27  20  75 SW8       30.28S WCI  19
DETROIT        PTSUNNY   27  21  78 SW10      30.30S WCI  17
FLINT          CLOUDY    29  22  75 SW8       30.24F WCI  21
GROSSE ILE     PTSUNNY   28  25  86 SW5       30.29S WCI  23
HILLSDALE      PTSUNNY   25  22  89 SW7       30.25F FOG     WCI  17
HOWELL         MOSUNNY   26  24  91 SW6       30.24S FOG     WCI  20

CITY           SKY/WX    TMP DP  RH WIND       PRES   REMARKS
JACKSON        MOSUNNY   25  21  85 SW7       30.26S FOG     WCI  17
LAMBERTVILLE   PTSUNNY   26  23  89 SW5       30.32R FOG     WCI  21
LANSING        CLOUDY    28  23  81 SW9       30.24F HAZE    WCI  19
LAPEER         CLOUDY    26  22  84 SW5       30.24S WCI  21
MASON          SUNNY     27  23  85 SW3       30.25S FOG
MONROE         MOSUNNY   28  23  84 SW8       30.30S WCI  19
MT. CLEMENS    PTSUNNY   27  21  77 SW8       30.25F WCI  19
PONTIAC        MOSUNNY   25  21  85 SW7       30.24S WCI  17
PORT HOPE        N/A     26  19  74 SW9G18    30.18F WCI  17
PORT HURON     PTSUNNY   27  21  80 S3        30.26F
TRI CITIES     CLOUDY    28  21  75 SW9       30.22F WCI  19
MIDLAND        CLOUDY    27  21  77 S7        30.20F WCI  20
TROY           SUNNY     28  23  83 SW3       30.28S
SAGINAW HB     CLOUDY    28  27  93 SW8       30.22F WCI  20
$$
MIZ043>046-050>051-056>058-064>065-071>073-077>080-061500-
SOUTHWEST LOWER MICHIGAN

CITY           SKY/WX    TMP DP  RH WIND       PRES   REMARKS
BATTLE CREEK   CLOUDY    25  21  85 S10       30.25F FOG     WCI  15
BENTON HARBOR  MOSUNNY   27  23  85 S6        30.27F FOG     WCI  20
BIG RAPIDS     CLOUDY    29  23  79 SW10      30.17S WCI  19
COLDWATER      MOSUNNY   24  24  98 SW6       30.28S FOG     WCI  17
FREMONT        FAIR      26  20  76 SW5       30.20S WCI  21
HOLLAND        SUNNY     26  22  84 S7        30.25R FOG     WCI  18
GRAND RAPIDS   PTSUNNY   28  24  85 SW9       30.23F FOG     WCI  19
IONIA          CLOUDY    27  24  89 SW6       30.22S FOG     WCI  21
KALAMAZOO      MOSUNNY   25  21  85 S9        30.26F WCI  15
LUDINGTON      FLURRIES  32  23  69 W10G17    30.19S WCI  24
MARSHALL       MOSUNNY   25  22  85 SW6       30.26S WCI  18
MOUNT PLEASANT CLOUDY    29  22  74 SW8       30.19S WCI  21
MUSKEGON       MOCLDY    33  21  61 SW14      30.22S WCI  23
SOUTH HAVEN    SUNNY     27  25  92 S6        30.26S FOG     WCI  21
$$
MIZ016>042-061500-
NORTHERN LOWER MICHIGAN

CITY           SKY/WX    TMP DP  RH WIND       PRES   REMARKS
ALPENA         CLOUDY    27  18  69 SW9       30.11S WCI  18
BEAVER ISLAND  CLOUDY    28  23  81 W15       30.08S WCI  17
BELLAIRE       LGT SNOW  28  25  89 SW5       30.13S WCI  22
CADILLAC       CLOUDY    26  21  81 SW14      30.11S WCI  15
CHARLEVOIX     LGT SNOW  29  28  94 W16       30.12S VSB 3/4 WCI  17
FRANKFORT      FLURRIES  31  25  78 W9G17     30.15S WCI  22
GAYLORD        LGT SNOW  25  20  81 SW15      30.07S WCI  13
GRAYLING       FLURRIES  25  20  82 S7        30.11F WCI  17
HARBOR SPRINGS SNOW      28  27  93 W10G22    30.08R VSB 1/2 WCI  19
HOUGHTON LAKE  CLOUDY    24  19  81 SW7       30.13F WCI  16
MANISTEE       CLOUDY    30  21  69 W13G22    30.17S WCI  20
OSCODA         CLOUDY    25  19  77 SW12      30.15F WCI  14
PELLSTON       LGT SNOW  28  24  85 W10       30.08R FOG     WCI  19
ROGERS CITY    CLOUDY    27  20  75 SW9       30.08S WCI  17
TRAVERSE CITY  LGT SNOW  28  24  85 SW6       30.13R FOG     WCI  22
$$
MIZ007>008-015-061500-
EASTERN UPPER MICHIGAN

CITY           SKY/WX    TMP DP  RH WIND       PRES   REMARKS
KINROSS        CLOUDY    25  23  93 SW9       30.04S WCI  15
MACKINAC ISLAN LGT SNOW  27  26  99 W15G21    30.06S WCI  15
NEWBERRY       CLOUDY    24  19  80 SW10      30.03S WCI  13
S. S. MARIE    CLOUDY    25  20  81 SW12      30.01F WCI  14
$$
MIZ004>006-011>014-085-061500-
CENTRAL UPPER MICHIGAN

CITY           SKY/WX    TMP DP  RH WIND       PRES   REMARKS
MANISTIQUE     CLOUDY    25  19  77 W9        30.06S WCI  15
ESCANABA       CLOUDY    25  18  74 W7        30.10S WCI  17
MENOMINEE      CLOUDY    25  19  80 W5        30.12S WCI  19
SAWYER-GWINN   PTCLDY    19  18  93 SW6       30.03R WCI  11
$$
MIZ001>003-009>011-084-061500-
WESTERN UPPER MICHIGAN

CITY           SKY/WX    TMP DP  RH WIND       PRES   REMARKS
IRON MOUNTAIN  CLOUDY    23  16  74 W6        30.05S HAZE    WCI  16
HOUGHTON       CLOUDY    25  19  78 SW13      29.99R WCI  14
COPPER HARBOR    N/A     29  21  72 N16       30.00S WCI  17
IRONWOOD       CLEAR     19  18  93 SW6       30.01F WCI  11
$$

ABBREVIATIONS USED IN REMARKS
   TC - TEMPERATURE IN CELSIUS
  WCI - WIND CHILL INDEX
   HX - HEAT INDEX
  VSB - VISIBILITY





USA.gov is the U.S. government's official web portal to all federal, state and local government web resources and services.